sat.trackr.live / text

‹ back to catalog

KUIPER-00135

NORAD 65961 · 2025-228Q

PAYLOAD ACTIVE UNKNOWN

§ Identity

Operator
Country
US
Launch date
2025-10-14
Launch site
AFETR
Launch vehicle
Mass (kg)
RCS (m²)

External: N2YO · Heavens-Above · Gunter

§ Orbital elements

Epoch: 2026-09-20T05:25:13.283616Z

Period
97.30 min
Inclination
51.9010°
Eccentricity
0.0000760
Mean motion
14.79929147 rev/d
Perigee alt
629.0 km
Apogee alt
630.1 km
Semi-major
7,007.7 km
B*
3.4084e-4
RAAN
210.4690°
Arg perigee
81.6694°
Mean anomaly
278.4355°
Rev number
5,217

§ Raw data

KUIPER-001351 65961U 25228Q   26263.22584819  .00002378  00000+0  34084-3 0  99952 65961  51.9010 210.4690 0000760  81.6694 278.4355 14.79929147 52176

JSON: /api/v1/satellites/65961 · /tle

For live sub-satellite position, see the globe view (requires WebGL).

§ Visibility from observer

Set your observer location to see the next 7 days of passes ≥ 10°. The values pass through the URL so the page stays shareable.

No JS? Fill the form by hand. The geolocation button needs JavaScript.